sat.trackr.live / text

‹ back to catalog

STARLINK-35216

NORAD 65516 · 2025-198AA

PAYLOAD ACTIVE UNKNOWN

§ Identity

Operator
Country
US
Launch date
2025-09-05
Launch site
AFETR
Launch vehicle
Mass (kg)
RCS (m²)

Purposes: comms

External: N2YO · Heavens-Above · Gunter

§ Orbital elements

Epoch: 2026-05-24T16:38:40.871040Z

Period
94.10 min
Inclination
53.1601°
Eccentricity
0.0001005
Mean motion
15.30206664 rev/d
Perigee alt
474.5 km
Apogee alt
475.9 km
Semi-major
6,853.3 km
B*
-1.8403e-4
RAAN
278.1717°
Arg perigee
80.3352°
Mean anomaly
279.7762°
Rev number
4,025

§ Raw data

STARLINK-352161 65516U 25198AA  26144.69352860 -.00005806  00000+0 -18403-3 0  99932 65516  53.1601 278.1717 0001005  80.3352 279.7762 15.30206664 40255

JSON: /api/v1/satellites/65516 · /tle

For live sub-satellite position, see the globe view (requires WebGL).

§ Visibility from observer

Set your observer location to see the next 7 days of passes ≥ 10°. The values pass through the URL so the page stays shareable.

No JS? Fill the form by hand. The geolocation button needs JavaScript.